Weather History for Milton, FL

Change the Weather History Date:

Thursday, November 22, 2012

  Actual Average (KNSE) Record (KNSE)
Temperature  
Mean Temperature 60 °F -  
Max Temperature 75 °F 66 °F 79 °F (2011)
Min Temperature 44 °F 47 °F 26 °F (2000)
Degree Days  
Heating Degree Days 6    
Growing Degree Days 10 (Base 50)    
Moisture  
Dew Point 47 °F    
Average Humidity 69    
Maximum Humidity 93    
Minimum Humidity 33    
Precipitation  
Precipitation 0.00 in - - ()
Sea Level Pressure  
Sea Level Pressure 30.16 in    
Wind  
Wind Speed 2 mph (North)    
Max Wind Speed 6 mph    
Max Gust Speed -    
Visibility 10 miles    
Events      
Averages and records for this station are not official NWS values.
T = Trace of Precipitation, MM = Missing Value Source: NWS Daily Summary

Daily Weather History Graph

Daily Weather History Graph

Search for Another Location

Airport:

Trip Planner

Search our weather history database for the weather conditions in past years. The results will help you decide how hot, cold, wet, or windy it might be!

Date:

Astronomy

Nov. 22, 2012 Rise Set
Actual Time 6:20 AM CST 4:47 PM CST
Civil Twilight 5:54 AM CST 5:13 PM CST
Nautical Twilight 5:25 AM CST 5:43 PM CST
Astronomical Twilight 4:56 AM CST 6:11 PM CST
Moon 1:14 PM CST 1:00 AM CST
Length of Visible Light 11h 18m
Length of Day
10h 26m
Waxing Gibbous, 71% of the Moon is Illuminated
Nov 22
Waxing Gibbous
Nov 28
Full
Dec 6
Last Quarter
Dec 13
New
Dec 19
First Quarter

Hourly Weather History & Observations

Time (CST) Temp. Dew Point Humidity Pressure Visibility Wind Dir Wind Speed Gust Speed Precip Events Conditions
12:56 AM 46.9 °F 44.1 °F 90% 30.13 in 10.0 mi NW 3.5 mph - N/A   Clear
1:56 AM 48.0 °F 46.0 °F 93% 30.13 in 10.0 mi NW 3.5 mph - N/A   Clear
2:56 AM 52.0 °F 46.9 °F 83% 30.13 in 10.0 mi North 3.5 mph - N/A   Clear
3:56 AM 51.1 °F 46.0 °F 83% 30.13 in 10.0 mi North 3.5 mph - N/A   Clear
4:56 AM 46.9 °F 45.0 °F 93% 30.14 in 10.0 mi Calm Calm - N/A   Clear
5:56 AM 45.0 °F 43.0 °F 93% 30.16 in 7.0 mi Calm Calm - N/A   Clear
6:56 AM 44.1 °F 42.1 °F 93% 30.17 in 6.0 mi Calm Calm - N/A   Clear
7:56 AM 57.0 °F 48.9 °F 74% 30.19 in 10.0 mi NNE 4.6 mph - N/A   Clear
8:17 AM 59.0 °F 50.0 °F 72% 30.23 in 10.0 mi NNE 3.5 mph - N/A   Partly Cloudy
8:56 AM 62.1 °F 48.9 °F 62% 30.21 in 10.0 mi Calm Calm - N/A   Clear
9:56 AM 68.0 °F 50.0 °F 52% 30.21 in 10.0 mi Calm Calm - N/A   Clear
10:56 AM 73.0 °F 50.0 °F 44% 30.19 in 10.0 mi Calm Calm - N/A   Clear
11:56 AM 73.9 °F 45.0 °F 35% 30.17 in 10.0 mi Calm Calm - N/A   Clear
12:56 PM 73.9 °F 44.1 °F 34% 30.15 in 10.0 mi NNE 5.8 mph - N/A   Clear
1:56 PM 75.0 °F 44.1 °F 33% 30.13 in 10.0 mi NNE 3.5 mph - N/A   Clear
2:56 PM 73.9 °F 45.0 °F 35% 30.12 in 10.0 mi Calm Calm - N/A   Clear
3:56 PM 73.0 °F 45.0 °F 37% 30.13 in 10.0 mi Calm Calm - N/A   Clear
4:56 PM 64.9 °F 48.9 °F 56% 30.15 in 10.0 mi South 3.5 mph - N/A   Clear
5:56 PM 62.1 °F 50.0 °F 65% 30.15 in 10.0 mi South 3.5 mph - N/A   Clear
6:56 PM 57.9 °F 50.0 °F 75% 30.16 in 10.0 mi Calm Calm - N/A   Clear
7:56 PM 59.0 °F 52.0 °F 78% 30.17 in 10.0 mi Calm Calm - N/A   Clear
8:56 PM 54.0 °F 50.0 °F 86% 30.17 in 10.0 mi Calm Calm - N/A   Clear
9:56 PM 50.0 °F 46.9 °F 89% 30.17 in 10.0 mi Calm Calm - N/A   Clear
10:56 PM 48.0 °F 45.0 °F 89% 30.17 in 9.0 mi Calm Calm - N/A   Clear
11:56 PM 50.0 °F 46.9 °F 89% 30.17 in 8.0 mi Calm Calm - N/A   Clear